DW7267 Weather Reports


Display with metric or nautical units.
time (UTC)temp
F
wind
direction
speed
MPH
gust
MPH
rain 1hr
in
rain 24hr
in
rain mn
in
humidity
%
barometer
mb
20260510084851 46 162 0.0 4.0 0.00 0.00 0.00 49 1018.7
20260510084349 46 162 1.0 5.0 0.00 0.00 0.00 48 1018.7
20260510083848 47 98 1.0 5.0 0.00 0.00 0.00 47 1018.7
20260510083348 48 100 1.0 4.0 0.00 0.00 0.00 46 1018.7
20260510082849 50 122 2.0 5.0 0.00 0.00 0.00 42 1018.6
20260510082350 50 71 2.0 6.0 0.00 0.00 0.00 40 1018.7
20260510081840 51 110 3.0 6.0 0.00 0.00 0.00 40 1018.7
20260510081343 52 140 4.0 7.0 0.00 0.00 0.00 39 1018.6
20260510080342 49 83 2.0 6.0 0.00 0.00 0.00 42 1018.5
20260510075842 48 160 0.0 4.0 0.00 0.00 0.00 46 1018.5
20260510075342 48 176 0.0 4.0 0.00 0.00 0.00 46 1018.4
20260510074835 48 152 0.0 3.0 0.00 0.00 0.00 45 1018.5
20260510074608 48 145 1.0 3.0 0.00 0.00 0.00 46 1018.5
20260510073833 48 150 1.0 4.0 0.00 0.00 0.00 46 1018.5
20260510073334 48 131 1.0 4.0 0.00 0.00 0.00 46 1018.4
20260510072834 47 154 0.0 3.0 0.00 0.00 0.00 46 1018.4
20260510072334 48 138 1.0 3.0 0.00 0.00 0.00 46 1018.5
20260510071828 48 134 1.0 3.0 0.00 0.00 0.00 46 1018.5
20260510071325 49 115 1.0 3.0 0.00 0.00 0.00 45 1018.5
20260510070824 49 86 1.0 4.0 0.00 0.00 0.00 43 1018.5
20260510070322 49 34 0.0 4.0 0.00 0.00 0.00 44 1018.5
20260510065822 49 137 0.0 1.0 0.00 0.00 0.00 46 1018.5
20260510065549 49 120 0.0 1.0 0.00 0.00 0.00 45 1018.5
20260510064817 49 121 0.0 4.0 0.00 0.00 0.00 45 1018.5
20260510064319 50 121 1.0 4.0 0.00 0.00 0.00 44 1018.5
20260510063314 51 94 2.0 5.0 0.00 0.00 0.00 41 1018.5
20260510062814 52 130 1.0 5.0 0.00 0.00 0.00 41 1018.5
20260510062537 51 73 1.0 5.0 0.00 0.00 0.00 42 1018.5
20260510061806 49 97 1.0 4.0 0.00 0.00 0.00 45 1018.5
20260510061534 49 102 0.0 1.0 0.00 0.00 0.00 47 1018.5
20260510060802 49 103 0.0 0.0 0.00 0.00 0.00 47 1018.5
20260510060302 50 103 0.0 1.0 0.00 0.00 0.00 45 1018.4
20260510055755 50 102 0.0 1.0 0.00 0.00 0.00 44 1018.4
20260510055253 51 102 0.0 3.0 0.00 0.00 0.00 43 1018.4
20260510054753 52 102 0.0 3.0 0.00 0.00 0.00 43 1018.4
20260510054523 53 102 1.0 3.0 0.00 0.00 0.00 41 1018.4
20260510054025 53 102 2.0 4.0 0.00 0.00 0.00 40 1018.4
20260510053527 54 112 1.0 4.0 0.00 0.00 0.00 39 1018.5
20260510052750 54 144 0.0 3.0 0.00 0.00 0.00 39 1018.5
20260510052252 54 155 0.0 3.0 0.00 0.00 0.00 39 1018.5
20260510051751 54 116 1.0 2.0 0.00 0.00 0.00 39 1018.4
20260510051250 54 125 0.0 2.0 0.00 0.00 0.00 39 1018.4
20260510050748 54 103 0.0 1.0 0.00 0.00 0.00 39 1018.4
20260510050250 54 102 0.0 1.0 0.00 0.00 0.00 39 1018.4
20260510045742 54 102 0.0 1.0 0.00 0.00 0.00 39 1018.4
20260510045240 55 103 0.0 1.0 0.00 0.00 0.00 39 1018.3
20260510044738 55 102 0.0 1.0 0.00 0.00 0.00 39 1018.1
20260510044507 55 102 0.0 1.0 0.00 0.00 0.00 39 1018.3
20260510043738 55 255 0.0 0.0 0.00 0.00 0.00 39 1018.3
20260510043234 56 255 0.0 1.0 0.00 0.00 0.00 37 1018.3
20260510042733 57 255 0.0 1.0 0.00 0.00 0.00 36 1018.1
20260510042232 58 255 0.0 1.0 0.00 0.00 0.00 34 1018.1
20260510041733 58 255 0.0 1.0 0.00 0.00 0.00 33 1018.1
20260510041230 60 255 0.0 0.0 0.00 0.00 0.00 31 1018.1
20260510040730 61 255 0.0 0.0 0.00 0.00 0.00 30 1018.0
20260510040228 62 255 0.0 0.0 0.00 0.00 0.00 28 1018.0
20260510035725 63 255 0.0 1.0 0.00 0.00 0.00 26 1017.9
20260510035226 64 255 0.0 1.0 0.00 0.00 0.00 25 1017.8
20260510034727 66 255 0.0 1.0 0.00 0.00 0.00 23 1017.8
20260510034224 67 255 0.0 1.0 0.00 0.00 0.00 22 1017.7
20260510033724 67 255 0.0 1.0 0.00 0.00 0.00 21 1017.5
20260510033217 68 255 0.0 1.0 0.00 0.00 0.00 22 1017.4
20260510032716 68 255 0.0 2.0 0.00 0.00 0.00 21 1017.4
20260510032215 69 255 0.0 2.0 0.00 0.00 0.00 21 1017.3
20260510031712 69 255 0.0 2.0 0.00 0.00 0.00 20 1017.3
20260510031212 69 242 0.0 3.0 0.00 0.00 0.00 20 1017.2
20260510030938 69 251 0.0 4.0 0.00 0.00 0.00 20 1017.1
20260510030207 70 269 0.0 4.0 0.00 0.00 0.00 20 1017.1
20260510025709 71 255 1.0 4.0 0.00 0.00 0.00 19 1017.0
20260510025208 71 255 0.0 4.0 0.00 0.00 0.00 19 1016.8
20260510024938 71 254 0.0 4.0 0.00 0.00 0.00 19 1016.8
20260510024208 72 254 1.0 4.0 0.00 0.00 0.00 18 1016.7
20260510023703 72 275 1.0 4.0 0.00 0.00 0.00 18 1016.6
20260510023435 73 283 1.0 6.0 0.00 0.00 0.00 18 1016.6
20260510022704 73 243 1.0 6.0 0.00 0.00 0.00 18 1016.5
20260510022202 73 263 1.0 6.0 0.00 0.00 0.00 18 1016.5
20260510021932 73 254 1.0 6.0 0.00 0.00 0.00 18 1016.4
20260510021200 74 248 1.0 5.0 0.00 0.00 0.00 17 1016.4
20260510020656 74 244 1.0 5.0 0.00 0.00 0.00 17 1016.4
20260510020156 74 233 1.0 5.0 0.00 0.00 0.00 18 1016.4
20260510015930 75 233 2.0 10.0 0.00 0.00 0.00 17 1016.4
20260510015428 75 226 3.0 10.0 0.00 0.00 0.00 17 1016.4
20260510014655 75 251 2.0 11.0 0.00 0.00 0.00 17 1016.2
20260510014154 76 241 2.0 9.0 0.00 0.00 0.00 17 1016.2
20260510013921 76 282 3.0 9.0 0.00 0.00 0.00 17 1016.2
20260510013151 76 262 1.0 6.0 0.00 0.00 0.00 17 1016.1
20260510012151 77 255 2.0 12.0 0.00 0.00 0.00 17 1016.1
20260510011648 78 269 3.0 12.0 0.00 0.00 0.00 16 1016.1
20260510011420 78 252 4.0 13.0 0.00 0.00 0.00 16 1016.1
20260510010640 79 255 4.0 13.0 0.00 0.00 0.00 16 1016.1
20260510010141 79 262 4.0 12.0 0.00 0.00 0.00 16 1016.1
20260510005642 79 248 3.0 12.0 0.00 0.00 0.00 16 1016.1
20260510005142 80 297 2.0 7.0 0.00 0.00 0.00 16 1016.1
20260510004641 80 262 2.0 9.0 0.00 0.00 0.00 16 1016.2
20260510004142 80 266 3.0 9.0 0.00 0.00 0.00 16 1016.2
20260510003639 80 221 4.0 10.0 0.00 0.00 0.00 16 1016.2
20260510003138 80 235 4.0 10.0 0.00 0.00 0.00 16 1016.2
20260510002637 80 224 3.0 9.0 0.00 0.00 0.00 16 1016.1
20260510002138 81 244 3.0 12.0 0.00 0.00 0.00 16 1016.1
20260510001636 81 242 3.0 12.0 0.00 0.00 0.00 16 1016.2
20260510001136 81 234 4.0 12.0 0.00 0.00 0.00 17 1016.2
20260510000633 81 230 4.0 12.0 0.00 0.00 0.00 16 1016.2
20260510000132 81 241 4.0 10.0 0.00 0.00 0.00 16 1016.1
20260509235632 81 35 4.0 10.0 0.00 0.00 0.00 16 1016.2
20260509235132 81 307 4.0 11.0 0.00 0.00 0.00 16 1016.1
20260509234631 81 203 3.0 15.0 0.00 0.00 0.00 16 1016.2
20260509234131 82 266 3.0 15.0 0.00 0.00 0.00 16 1016.2
20260509233623 81 279 5.0 15.0 0.00 0.00 0.00 15 1016.2
20260509233125 82 283 4.0 15.0 0.00 0.00 0.00 16 1016.2
20260509232625 82 255 2.0 11.0 0.00 0.00 0.00 16 1016.1
20260509232125 82 245 2.0 11.0 0.00 0.00 0.00 16 1016.2
20260509231625 82 241 3.0 12.0 0.00 0.00 0.00 16 1016.1
20260509231355 82 231 4.0 12.0 0.00 0.00 0.00 17 1016.2
20260509230619 82 217 4.0 12.0 0.00 0.00 0.00 16 1016.4
20260509230119 82 300 3.0 12.0 0.00 0.00 0.00 16 1016.2
20260509225621 82 226 4.0 13.0 0.00 0.00 0.00 16 1016.2
20260509225118 80 263 4.0 13.0 0.00 0.00 0.00 16 1016.2
20260509224619 80 150 3.0 9.0 0.00 0.00 0.00 16 1016.4
20260509224117 81 104 2.0 7.0 0.00 0.00 0.00 16 1016.5
20260509223616 81 157 2.0 10.0 0.00 0.00 0.00 16 1016.6
20260509223115 82 214 3.0 10.0 0.00 0.00 0.00 16 1016.6
20260509222612 82 158 3.0 12.0 0.00 0.00 0.00 16 1016.7
20260509222113 82 138 3.0 11.0 0.00 0.00 0.00 15 1016.8
20260509221844 82 216 3.0 12.0 0.00 0.00 0.00 17 1016.8
20260509221114 82 271 3.0 12.0 0.00 0.00 0.00 16 1017.0
20260509220607 82 238 3.0 11.0 0.00 0.00 0.00 16 1017.1
20260509220107 83 325 4.0 11.0 0.00 0.00 0.00 16 1017.2
20260509215607 82 205 4.0 12.0 0.00 0.00 0.00 16 1017.2
20260509215107 82 271 3.0 12.0 0.00 0.00 0.00 16 1017.2
20260509214607 82 138 3.0 12.0 0.00 0.00 0.00 16 1017.3
20260509214336 82 210 3.0 12.0 0.00 0.00 0.00 16 1017.4
20260509213603 82 252 3.0 14.0 0.00 0.00 0.00 17 1017.3
20260509213102 82 207 3.0 14.0 0.00 0.00 0.00 17 1017.4
20260509212602 82 339 3.0 9.0 0.00 0.00 0.00 16 1017.4
20260509212103 82 238 3.0 8.0 0.00 0.00 0.00 16 1017.5
20260509211601 82 183 4.0 15.0 0.00 0.00 0.00 16 1017.7
20260509211331 82 302 4.0 15.0 0.00 0.00 0.00 17 1017.7
20260509210555 81 248 4.0 11.0 0.00 0.00 0.00 17 1017.7
20260509210055 82 248 5.0 11.0 0.00 0.00 0.00 16 1017.7
20260509205553 82 265 4.0 11.0 0.00 0.00 0.00 16 1017.8
20260509205055 82 213 4.0 11.0 0.00 0.00 0.00 16 1017.9
20260509204555 82 278 4.0 12.0 0.00 0.00 0.00 16 1018.0
20260509204327 82 290 4.0 12.0 0.00 0.00 0.00 16 1018.0
20260509203551 82 217 4.0 13.0 0.00 0.00 0.00 15 1018.0
20260509203050 82 196 4.0 13.0 0.00 0.00 0.00 17 1018.0
20260509202547 82 240 4.0 9.0 0.00 0.00 0.00 15 1018.1
20260509202049 82 262 4.0 9.0 0.00 0.00 0.00 15 1018.3
20260509201549 82 235 3.0 10.0 0.00 0.00 0.00 16 1018.3
20260509201319 82 138 3.0 10.0 0.00 0.00 0.00 17 1018.4
20260509200543 81 160 4.0 11.0 0.00 0.00 0.00 16 1018.4
20260509200043 81 234 4.0 12.0 0.00 0.00 0.00 16 1018.5
20260509195544 81 87 4.0 12.0 0.00 0.00 0.00 16 1018.5
20260509195314 81 254 3.0 10.0 0.00 0.00 0.00 16 1018.4
20260509194814 81 212 3.0 11.0 0.00 0.00 0.00 15 1018.6
20260509194043 81 276 3.0 11.0 0.00 0.00 0.00 16 1018.6
20260509193535 81 163 3.0 6.0 0.00 0.00 0.00 16 1018.5
20260509193035 81 234 2.0 9.0 0.00 0.00 0.00 15 1018.6
20260509192536 81 254 3.0 9.0 0.00 0.00 0.00 16 1018.6
20260509192036 81 250 3.0 9.0 0.00 0.00 0.00 16 1018.8
20260509191536 81 258 2.0 9.0 0.00 0.00 0.00 13 1019.0
20260509191037 80 247 2.0 9.0 0.00 0.00 0.00 14 1019.0
20260509190801 80 99 3.0 9.0 0.00 0.00 0.00 12 1019.0
20260509190031 80 258 3.0 11.0 0.00 0.00 0.00 13 1019.1
20260509185801 80 210 3.0 11.0 0.00 0.00 0.00 15 1019.0
20260509185030 80 258 3.0 13.0 0.00 0.00 0.00 14 1019.1
20260509184530 80 261 4.0 13.0 0.00 0.00 0.00 15 1019.2
20260509184301 80 29 4.0 12.0 0.00 0.00 0.00 15 1019.2
20260509183757 80 268 4.0 13.0 0.00 0.00 0.00 15 1019.2
20260509183024 80 276 4.0 13.0 0.00 0.00 0.00 18 1019.2
20260509182525 80 195 4.0 11.0 0.00 0.00 0.00 16 1019.2
20260509182024 80 259 3.0 11.0 0.00 0.00 0.00 18 1019.2
20260509181757 80 234 3.0 10.0 0.00 0.00 0.00 17 1019.3
20260509181024 80 258 3.0 10.0 0.00 0.00 0.00 17 1019.3
20260509180518 80 233 3.0 12.0 0.00 0.00 0.00 17 1019.3
20260509180019 80 306 3.0 12.0 0.00 0.00 0.00 16 1019.3
20260509175519 79 266 4.0 13.0 0.00 0.00 0.00 20 1019.4
20260509175018 79 276 3.0 13.0 0.00 0.00 0.00 17 1019.3
20260509174518 79 237 4.0 9.0 0.00 0.00 0.00 18 1019.3
20260509174019 79 327 3.0 9.0 0.00 0.00 0.00 18 1019.4
20260509173511 79 269 2.0 9.0 0.00 0.00 0.00 18 1019.4
20260509173013 79 281 2.0 9.0 0.00 0.00 0.00 18 1019.4
20260509172513 78 45 3.0 9.0 0.00 0.00 0.00 19 1019.4
20260509172012 79 242 3.0 9.0 0.00 0.00 0.00 18 1019.4
20260509171513 79 224 3.0 8.0 0.00 0.00 0.00 18 1019.4
20260509171012 79 84 3.0 8.0 0.00 0.00 0.00 18 1019.6
20260509170507 79 74 2.0 8.0 0.00 0.00 0.00 18 1019.4
20260509170006 78 22 2.0 8.0 0.00 0.00 0.00 20 1019.4
20260509165507 78 27 1.0 5.0 0.00 0.00 0.00 19 1019.4
20260509165007 77 336 1.0 5.0 0.00 0.00 0.00 18 1019.4
20260509164507 77 254 2.0 7.0 0.00 0.00 0.00 18 1019.4
20260509164006 77 10 2.0 7.0 0.00 0.00 0.00 18 1019.4
20260509163503 77 271 2.0 7.0 0.00 0.00 0.00 18 1019.4
20260509163001 77 335 1.0 7.0 0.00 0.00 0.00 19 1019.3
20260509162500 76 289 2.0 7.0 0.00 0.00 0.00 18 1019.3
20260509162001 76 287 2.0 7.0 0.00 0.00 0.00 20 1019.3
20260509161500 76 257 2.0 6.0 0.00 0.00 0.00 19 1019.3
20260509161001 76 32 2.0 6.0 0.00 0.00 0.00 20 1019.3
20260509160459 76 45 1.0 5.0 0.00 0.00 0.00 20 1019.3
20260509155956 76 280 2.0 5.0 0.00 0.00 0.00 20 1019.3
20260509155454 76 246 1.0 5.0 0.00 0.00 0.00 19 1019.3
20260509154954 76 273 1.0 8.0 0.00 0.00 0.00 21 1019.3
20260509154455 75 252 1.0 8.0 0.00 0.00 0.00 20 1019.3
20260509153955 75 303 2.0 8.0 0.00 0.00 0.00 20 1019.2
20260509153449 75 257 2.0 8.0 0.00 0.00 0.00 21 1019.2
20260509152949 75 257 1.0 7.0 0.00 0.00 0.00 20 1019.2
20260509152450 74 322 2.0 7.0 0.00 0.00 0.00 21 1019.2
20260509151949 74 262 2.0 6.0 0.00 0.00 0.00 20 1019.2
20260509150948 74 279 1.0 5.0 0.00 0.00 0.00 20 1019.2
20260509150445 73 317 0.0 4.0 0.00 0.00 0.00 24 1019.1
20260509145947 71 103 0.0 1.0 0.00 0.00 0.00 33 1019.1
20260509145445 70 103 0.0 1.0 0.00 0.00 0.00 36 1019.1
20260509144945 68 230 0.0 1.0 0.00 0.00 0.00 38 1019.1
20260509144446 67 230 0.0 1.0 0.00 0.00 0.00 42 1019.1
20260509143946 65 230 0.0 1.0 0.00 0.00 0.00 45 1019.2
20260509143447 63 230 0.0 1.0 0.00 0.00 0.00 46 1019.2
20260509142939 61 230 0.0 1.0 0.00 0.00 0.00 48 1019.2
20260509142439 60 230 0.0 1.0 0.00 0.00 0.00 49 1019.1
20260509141936 59 231 0.0 1.0 0.00 0.00 0.00 49 1019.2
20260509141435 58 230 0.0 1.0 0.00 0.00 0.00 50 1019.2
20260509140936 56 230 0.0 1.0 0.00 0.00 0.00 50 1019.1
20260509140430 56 230 0.0 1.0 0.00 0.00 0.00 50 1019.1
20260509135931 56 230 0.0 0.0 0.00 0.00 0.00 49 1019.1
20260509135700 55 230 0.0 0.0 0.00 0.00 0.00 51 1019.1
20260509134928 55 230 0.0 0.0 0.00 0.00 0.00 51 1019.0
20260509134428 53 230 0.0 0.0 0.00 0.00 0.00 53 1019.0
20260509134200 53 229 0.0 0.0 0.00 0.00 0.00 55 1018.8
20260509133426 52 229 0.0 0.0 0.00 0.00 0.00 54 1018.8
20260509132924 51 230 0.0 0.0 0.00 0.00 0.00 56 1018.8
20260509132422 50 230 0.0 0.0 0.00 0.00 0.00 58 1018.7
20260509131922 48 229 0.0 0.0 0.00 0.00 0.00 62 1018.6
20260509131653 46 230 0.0 0.0 0.00 0.00 0.00 64 1018.6
20260509130922 44 230 0.0 0.0 0.00 0.00 0.00 67 1018.5
20260509130649 42 231 0.0 0.0 0.00 0.00 0.00 69 1018.5
20260509125914 41 230 0.0 0.0 0.00 0.00 0.00 70 1018.5
20260509125412 40 230 0.0 1.0 0.00 0.00 0.00 70 1018.4
20260509125143 39 230 0.0 1.0 0.00 0.00 0.00 70 1018.4
20260509124410 39 231 0.0 1.0 0.00 0.00 0.00 70 1018.4
20260509123908 39 230 0.0 1.0 0.00 0.00 0.00 69 1018.3
20260509123638 39 230 0.0 0.0 0.00 0.00 0.00 70 1018.3
20260509122906 39 230 0.0 0.0 0.00 0.00 0.00 69 1018.1
20260509122407 39 230 0.0 0.0 0.00 0.00 0.00 69 1018.1
20260509121904 39 230 0.0 0.0 0.00 0.00 0.00 69 1018.1
20260509121406 39 231 0.0 0.0 0.00 0.00 0.00 69 1018.0
20260509120857 39 230 0.0 1.0 0.00 0.00 0.00 69 1018.0
20260509120628 39 230 0.0 1.0 0.00 0.00 0.00 69 1018.0
20260509115855 39 231 0.0 1.0 0.00 0.00 0.00 70 1018.0
20260509115356 38 230 0.0 1.0 0.00 0.00 0.00 70 1018.0
20260509114855 38 230 0.0 1.0 0.00 0.00 0.00 70 1017.9
20260509114627 38 230 0.0 1.0 0.00 0.00 0.00 70 1018.0
20260509113854 38 230 0.0 1.0 0.00 0.00 0.00 71 1017.9
20260509113351 38 230 0.0 1.0 0.00 0.00 0.00 71 1018.0
20260509113123 38 231 0.0 1.0 0.00 0.00 0.00 71 1018.0
20260509112352 38 120 0.0 0.0 0.00 0.00 0.00 71 1018.0
20260509112122 38 120 0.0 0.0 0.00 0.00 0.00 71 1017.9
20260509111350 38 120 0.0 0.0 0.00 0.00 0.00 71 1018.0
20260509110845 38 120 0.0 0.0 0.00 0.00 0.00 71 1018.0
20260509110346 38 120 0.0 0.0 0.00 0.00 0.00 71 1017.9
20260509105844 38 120 0.0 0.0 0.00 0.00 0.00 71 1017.9
20260509105345 38 120 0.0 0.0 0.00 0.00 0.00 70 1017.9
20260509104844 38 120 0.0 0.0 0.00 0.00 0.00 71 1017.9
20260509104346 38 120 0.0 0.0 0.00 0.00 0.00 70 1017.9
20260509104114 38 120 0.0 0.0 0.00 0.00 0.00 70 1018.0
20260509103340 39 120 0.0 0.0 0.00 0.00 0.00 70 1018.0
20260509102840 39 120 0.0 0.0 0.00 0.00 0.00 69 1018.0
20260509102340 39 120 0.0 0.0 0.00 0.00 0.00 69 1018.0
20260509101839 39 120 0.0 0.0 0.00 0.00 0.00 68 1018.0
20260509101609 39 121 0.0 0.0 0.00 0.00 0.00 68 1018.0
20260509100334 39 120 0.0 0.0 0.00 0.00 0.00 68 1018.0
20260509095835 39 120 0.0 0.0 0.00 0.00 0.00 68 1018.0
20260509095334 40 120 0.0 0.0 0.00 0.00 0.00 68 1018.0
20260509095103 40 120 0.0 0.0 0.00 0.00 0.00 67 1018.1
20260509094604 40 120 0.0 0.0 0.00 0.00 0.00 67 1018.1
20260509093831 40 120 0.0 0.0 0.00 0.00 0.00 66 1018.1
20260509093329 40 121 0.0 0.0 0.00 0.00 0.00 67 1018.1
20260509092830 40 120 0.0 0.0 0.00 0.00 0.00 66 1018.1
20260509092329 40 121 0.0 0.0 0.00 0.00 0.00 66 1018.3
20260509091827 41 120 0.0 0.0 0.00 0.00 0.00 65 1018.3
20260509091327 41 120 0.0 0.0 0.00 0.00 0.00 65 1018.3
20260509091053 41 120 0.0 0.0 0.00 0.00 0.00 65 1018.3
20260509090318 41 120 0.0 0.0 0.00 0.00 0.00 64 1018.3
20260509085816 41 121 0.0 0.0 0.00 0.00 0.00 64 1018.3
20260509085314 42 121 0.0 0.0 0.00 0.00 0.00 64 1018.3